This demonstration page uses our WeatherBlox Daily Observations layout. Learn more.

Left ArrowRight Arrow

39.29038, -76.61219

Hourly Observations for September 7, 2020

Temp ( °F °C ) Dew Point ( °F °C ) Humidity (%) Winds ( mph kmh ) Pressure ( in mb ) Visibility ( mi km ) Precip ( " mm )
12:54 am 00:54 Mostly Cloudy 65 18.3 60 15.6 84 84 SW 3 6 30.11 1020 10 16 0.00 0.00
1:54 am 01:54 Partly Cloudy 64 17.8 60 15.6 87 87 WSW 3 6 30.11 1020 10 16 0.00 0.00
2:54 am 02:54 Partly Cloudy 66 18.9 60 15.6 81 81 S 3 6 30.09 1019 10 16 0.00 0.00
3:54 am 03:54 Partly Cloudy 62 16.7 59 15 90 90 Calm 30.08 1019 10 16 0.00 0.00
4:54 am 04:54 Mostly Clear 61 16.1 59 15 93 93 Calm 30.07 1018 10 16 0.00 0.00
5:54 am 05:54 Mostly Clear 60 15.6 58 14.4 93 93 Calm 30.06 1018 10 16 0.00 0.00
6:54 am 06:54 Partly Cloudy with Fog 61 16.1 58 14.4 90 90 Calm 30.09 1019 9 14 0.00 0.00
7:54 am 07:54 Partly Cloudy 66 18.9 61 16.1 84 84 SSE 3 6 30.09 1019 10 16 0.00 0.00
8:54 am 08:54 Partly Cloudy 71 21.7 63 17.2 76 76 SSE 3 6 30.09 1019 10 16 0.00 0.00
9:54 am 09:54 Partly Cloudy 75 23.9 62 16.7 64 64 Calm 30.11 1020 10 16 0.00 0.00
10:54 am 10:54 Partly Cloudy 78 25.6 61 16.1 56 56 Calm 30.10 1019 10 16 0.00 0.00
11:54 am 11:54 Mostly Cloudy 80 26.7 59 15 49 49 S 3 6 30.09 1019 10 16 0.00 0.00
12:54 pm 12:54 Partly Cloudy 82 27.8 57 13.9 42 42 Calm 30.06 1018 10 16 0.00 0.00
1:54 pm 13:54 Partly Cloudy 82 27.8 58 14.4 44 44 SSE 6 9 30.03 1017 10 16 0.00 0.00
2:54 pm 14:54 Partly Cloudy 82 27.8 62 16.7 51 51 SSE 7 11 30.02 1017 10 16 0.00 0.00
3:54 pm 15:54 Mostly Sunny 82 27.8 59 15 46 46 VRB 7 11 30.01 1016 10 16 0.00 0.00
4:54 pm 16:54 Mostly Sunny 81 27.2 56 13.3 42 42 SSE 8 13 30.00 1016 10 16 0.00 0.00
5:54 pm 17:54 Mostly Sunny 80 26.7 59 15 49 49 SE 7 11 30.00 1016 10 16 0.00 0.00
6:54 pm 18:54 Mostly Sunny 77 25 57 13.9 50 50 SE 6 9 30.01 1016 10 16 0.00 0.00
7:54 pm 19:54 Mostly Clear 74 23.3 57 13.9 56 56 SSE 6 9 30.01 1016 10 16 0.00 0.00
8:54 pm 20:54 Clear 69 20.6 59 15 70 70 WNW 3 6 30.04 1017 10 16 0.00 0.00
9:54 pm 21:54 Clear 68 20 60 15.6 76 76 Calm 30.06 1018 10 16 0.00 0.00
10:54 pm 22:54 Clear 67 19.4 60 15.6 79 79 Calm 30.07 1018 10 16 0.00 0.00
11:54 pm 23:54 Clear 64 17.8 60 15.6 87 87 Calm 30.06 1018 10 16 0.00 0.00

Powered by AerisWeather